Location: U-46 Planetarium
(42.0300°N, 88.2740°W)
Time: 06:07:33
(UTC-05:00)

Daily predictions for brighter satellites

Satellite Brightness Start Highest point End
(mag) Time Altitude Azimuth Time Altitude Azimuth Time Altitude Azimuth
Cosmos 1743 3.3 20:43:31 10° N 20:47:07 38° ENE 20:50:42 10° SSE
SJ-11-01 4.3 20:42:57 10° SSE 20:47:40 75° ENE 20:52:25 10° N
Okean 1 3.4 20:51:11 10° S 20:55:15 89° W 20:59:20 10° N
Cosmos 1570 Rocket 4.1 20:51:35 10° SSW 20:56:55 88° WNW 21:02:20 10° NNE
Centaur D-1A AC-31 3.1 20:52:15 10° WSW 20:57:24 18° SSW 21:00:13 10° SSE
USA 234 3.3 20:51:59 10° NE 20:58:27 57° SE 21:04:53 10° SSW
NOSS 3-2 (A) 3.6 20:53:07 10° SW 20:59:01 82° NW 21:05:36 10° NE
Cosmos 304 Rocket 4.2 20:55:19 10° SSW 21:00:06 69° WNW 21:04:56 10° NNE
Lacrosse 5 rocket 3.2 20:59:19 10° NNW 21:02:56 24° NNE 21:06:23 10° E
Timation 2 Rocket 3.8 20:57:09 10° SSW 21:03:03 71° ESE 21:09:07 10° NNE
NOSS 3-2 (C) 3.4 20:59:11 10° SSW 21:05:03 81° ESE 21:11:36 10° NE
Meteor 2-4 Rocket 4.3 21:00:20 10° SSE 21:05:17 37° E 21:10:22 10° NNE
Cosmos 1939 Rocket 4.0 21:01:41 10° S 21:05:38 45° W 21:09:38 10° NNW
Abrixas rocket 2.5 21:08:20 10° WSW 21:11:32 70° NNW 21:14:47 10° ENE
ERS-1 Rocket 4.0 21:07:46 11° SE 21:11:56 31° ENE 21:16:18 10° N
ISS -1.8 21:09:54 10° W 21:12:54 32° NNW 21:15:53 10° NE
Resurs 1-3 4.5 21:08:58 10° S 21:13:13 50° W 21:17:30 10° NNW
Cosmos 1898 Rocket 3.6 21:11:59 10° NNW 21:17:19 86° WSW 21:22:39 10° SSE
USA 186 4.4 21:17:15 10° SW 21:19:43 20° W 21:22:17 10° NW
ARGOS 3.4 21:15:18 11° SSE 21:20:28 58° ENE 21:25:47 10° N
Cosmos 2322 Rocket 2.2 21:15:30 10° NNW 21:21:08 84° ENE 21:26:19 12° SSE
Tiangong 2 1.0 21:18:28 10° W 21:21:38 89° N 21:24:48 10° E
Cosmos 1814 Rocket 4.0 21:16:44 10° S 21:21:54 63° ESE 21:27:09 10° NNE
H-2A R/B 2.4 21:19:42 13° SE 21:23:52 48° ENE 21:28:42 10° N
Cosmos 1455 Rocket 3.5 21:19:44 10° N 21:23:55 44° ENE 21:27:13 16° SE
CENTAUR R/B 2.6 21:19:10 10° SSW 21:24:49 52° ESE 21:31:20 10° NE
Cosmos 1340 Rocket 3.2 21:25:14 11° SSE 21:28:52 44° E 21:32:45 10° NNE
SL-16 R/B 2.3 21:24:54 10° NNW 21:30:35 78° WSW 21:35:43 13° SSE
Cosmos 292 Rocket 3.9 21:26:10 10° S 21:30:46 51° ESE 21:35:23 10° NNE
Cosmos 990 Rocket 4.0 21:27:57 10° NNW 21:33:12 86° WSW 21:37:44 14° SSE
Shenzhou-11 Module 1.8 21:31:21 10° W 21:34:20 80° SSW 21:36:04 22° ESE
Cosmos 1975 Rocket 3.4 21:30:41 10° SSW 21:34:58 67° W 21:39:18 10° N
ATLAS 3B R/B 4.3 21:32:40 10° WSW 21:39:18 40° NW 21:45:43 10° NNE
Cosmos 1242 Rocket 3.5 21:36:14 10° NNW 21:39:45 45° W 21:43:11 10° SSW
Meteor 2-20 4.4 21:34:09 10° N 21:40:19 83° E 21:45:56 13° S
Meteor 1-13 Rocket 4.3 21:35:05 10° S 21:41:00 88° E 21:47:00 10° N
Aureole 2 Rocket 2.0 21:39:06 10° NNW 21:42:01 59° ENE 21:43:07 31° SE
Helios 1A 3.8 21:41:57 21° ESE 21:44:07 35° ENE 21:47:56 10° N
Meteor 2-20 Rocket 4.5 21:38:37 10° N 21:44:45 69° E 21:49:36 17° SSE
MetOp-B 4.1 21:44:58 16° SSE 21:49:19 88° ENE 21:54:42 10° NNW
Cosmos 1544 Rocket 3.5 21:46:53 10° N 21:51:19 89° NE 21:54:28 19° S
Okean 2 4.4 21:50:55 24° ESE 21:52:12 29° E 21:55:50 10° NNE
Meteor 1-15 Rocket 4.5 21:48:21 10° N 21:53:58 54° ENE 21:57:22 23° SE
Cosmos 2150 Rocket 4.1 21:49:45 10° NNW 21:55:09 79° WSW 21:58:51 20° SSE
CZ-4C R/B 3.7 21:50:46 10° NNW 21:57:23 40° NE 22:03:19 16° ESE
SL-08 RB Rocket 3.8 21:58:55 19° S 22:02:04 72° WSW 22:06:40 10° NNW
SJ 16-02 1.7 21:59:03 10° N 22:03:24 51° ENE 22:05:18 30° SE
Cosmos 1356 Rocket 4.3 22:03:26 28° ESE 22:04:27 32° E 22:08:18 10° NNE
Resurs 01 Rocket 4.2 22:02:53 10° SW 22:05:26 15° W 22:07:59 10° NW
Cosmos 1536 Rocket 3.5 22:05:18 20° S 22:08:19 84° E 22:12:49 10° N
Cosmos 2360 Rocket 2.2 22:05:13 10° NNW 22:10:54 88° WSW 22:14:04 27° SSE
Cosmos 540 Rocket 3.4 22:06:54 12° SSW 22:11:43 78° ESE 22:16:55 10° NNE
Helios 1B rocket 2.8 22:08:55 10° NNE 22:12:55 45° E 22:13:58 36° SE
CZ-2C R/B 4.1 22:09:52 10° NE 22:13:59 21° E 22:14:47 20° ESE
Cosmos 2219 Rocket 3.3 22:09:52 10° N 22:14:49 31° NE 22:17:36 21° E
Landsat 7 4.0 22:14:41 32° SE 22:16:41 58° ENE 22:21:22 10° N
Nadezhda 4 Rocket 4.0 22:14:11 10° N 22:20:29 69° E 22:23:53 29° SSE
IGS 5A 3.9 22:21:30 37° ESE 22:22:36 47° ENE 22:26:36 10° N
Cosmos 841 Rocket 4.5 22:20:32 10° SW 22:25:35 47° WNW 22:30:41 10° N
SPOT 5 2.7 22:28:40 36° S 22:30:26 77° WSW 22:35:02 10° NNW
Terra 2.0 22:33:59 40° SE 22:35:26 59° ENE 22:40:08 10° N
Cosmos 372 Rocket 3.9 22:31:59 10° NNW 22:37:09 84° WSW 22:39:00 40° SSE
Cosmos 2333 Rocket 3.0 22:31:56 10° NNW 22:37:20 41° ENE 22:39:38 29° ESE
CARTOSAT-1 3.5 22:39:20 51° SE 22:40:20 75° ENE 22:44:40 10° N
COSMOS 2428 2.8 22:34:50 10° NNW 22:40:30 68° ENE 22:42:36 39° SE
USA 234 4.2 22:35:07 10° NE 22:41:22 49° NNW 22:47:37 10° WSW
Lacrosse 5 rocket 1.3 22:38:16 10° NW 22:42:31 65° SW 22:43:05 57° S
CZ-2C R/B 3.5 22:41:20 37° SE 22:43:09 55° ENE 22:48:39 10° N
BREEZE M DEB (TANK) 3.6 22:41:11 10° WNW 22:47:18 30° WSW 22:47:56 28° SW
Cosmos 2026 Rocket 4.4 22:41:27 10° N 22:47:23 47° ENE 22:49:21 36° ESE
Spot 1 3.8 22:47:20 59° S 22:48:05 85° WSW 22:52:11 10° NNW
Abrixas rocket 4.3 22:45:31 10° WNW 22:48:20 26° N 22:51:08 10° NE
ISS -0.7 22:48:03 10° NW 22:50:07 16° N 22:52:11 10° NE
ERS-1 Rocket 4.3 22:47:45 18° SSW 22:50:39 32° W 22:55:08 10° NNW
Cosmos 1025 Rocket 3.2 22:51:30 42° SSW 22:52:52 70° W 22:57:15 10° N
Tiangong 2 2.3 22:55:15 10° W 22:57:22 38° WNW 22:57:22 38° WNW
Cosmos 1606 Rocket 3.6 22:54:29 10° N 22:58:52 60° E 22:59:18 57° ESE
Cosmos 2297 Rocket 3.4 22:59:43 25° E 22:59:43 25° E 23:03:46 10° NE
SPOT 1/Viking Rocket 4.3 22:57:27 29° SSW 22:59:37 45° W 23:04:35 10° NNW
Cosmos 2142 Rocket 4.5 22:59:55 43° SSE 23:01:48 63° E 23:07:57 10° NNE
Spot 4 4.5 23:01:19 39° E 23:02:09 42° ENE 23:06:43 10° N
Cosmos 2227 Rocket 3.1 23:02:54 30° E 23:02:54 30° E 23:07:28 10° NE
H-2A R/B 4.0 23:00:19 11° SW 23:03:34 20° W 23:07:10 10° NW
Cosmos 2322 4.4 22:58:14 10° NW 23:03:40 45° WSW 23:05:41 32° SSW
Meteor 1-29 3.6 23:01:33 10° N 23:04:56 50° WNW 23:05:14 48° W
Cosmos 2237 Rocket 3.0 23:03:53 10° NNW 23:09:17 41° ENE 23:11:02 33° E
YAOGAN 11 4.1 23:09:09 64° SSW 23:09:45 78° WSW 23:14:18 10° NNW
Cosmos 192 4.2 23:11:43 64° SE 23:12:09 69° ESE 23:17:03 10° NNE
Cosmos 1125 Rocket 4.2 23:07:36 10° NNW 23:12:35 44° WSW 23:13:59 36° SW
Cosmos 783 Rocket 4.5 23:10:53 42° SSW 23:12:42 82° WNW 23:18:03 10° NNE
Cosmos 1627 Rocket 4.4 23:07:49 10° N 23:14:01 84° E 23:15:50 49° SSE
Cosmos 1066 Rocket 4.4 23:12:12 33° SW 23:14:30 62° WNW 23:19:55 10° N
Cosmos 2195 Rocket 4.4 23:09:01 10° N 23:15:11 90° W 23:17:05 48° S
CENTAUR R/B 4.1 23:10:10 10° WSW 23:15:46 35° NW 23:22:10 10° NNE
Cosmos 1634 Rocket 4.0 23:17:53 39° SSW 23:20:26 79° W 23:26:49 10° N
Meteor 1-21 4.1 23:24:50 58° SE 23:25:41 67° E 23:31:17 10° NNE
H-2A R/B 4.1 23:26:57 17° ENE 23:27:21 18° ENE 23:30:11 10° NNE
COBE Rocket 4.3 23:24:08 10° NNE 23:28:22 46° E 23:28:22 46° E
Mayak 0.7 23:25:30 10° NE 23:27:37 19° ENE 23:27:37 19° ENE
Cosmos 1766 3.5 23:27:07 10° NNW 23:30:44 67° NW 23:30:44 67° NW
Cosmos 2084 Rocket 4.4 23:27:54 10° NNW 23:31:37 36° NE 23:31:42 36° NE
Meteor 1-22 Rocket 4.1 23:27:27 10° NNW 23:32:47 69° W 23:33:40 57° SSW
Cosmos 2219 3.5 23:30:45 32° SW 23:33:23 66° WNW 23:39:08 10° NNE
SAR-Lupe-4 4.3 23:34:50 52° NNW 23:34:50 52° NNW 23:37:36 10° NNW
Cosmos 1892 Rocket 3.5 23:34:27 75° W 23:34:27 75° W 23:38:48 10° N
SJ 16-02 3.6 23:39:06 10° WNW 23:41:31 14° W 23:42:18 14° WSW
Cosmos 773 Rocket 3.8 23:41:37 73° ESE 23:41:45 74° ESE 23:46:53 10° NNE
CZ-4C R/B 3.2 23:39:08 10° NW 23:46:17 56° WSW 23:48:29 44° SSW
Cosmos 1758 4.0 23:43:07 10° N 23:46:29 51° NE 23:46:29 51° NE
Cosmos 2228 3.4 23:45:53 10° NNW 23:49:50 57° WNW 23:49:50 57° WNW
Cosmos 1733 4.2 23:46:45 10° N 23:49:37 42° NNE 23:49:37 42° NNE
COSMOS 2455 2.7 23:50:51 64° SSE 23:51:30 70° ESE 23:57:31 10° NE
Cosmos 1726 Rocket 4.4 23:50:19 10° NNW 23:54:26 40° W 23:54:26 40° W
